Regional Weather Roundup
Issued by NWS

Home | Current Version | Previous Version | Graphics & Text | Print | Product List | Glossary On
Versions: 1 2 3 4 5 6 7 8 9 10 11 12 13 14 15 16 17 18 19 20 21 22 23 24 25 26 27 28 29 30 31 32 33 34 35 36 37 38 39 40 41 42 43 44 45 46 47 48 49 50
484
ASUS45 KTFX 250610
RWRMT
MONTANA REGIONAL WEATHER ROUNDUP
NATIONAL WEATHER SERVICE GREAT FALLS MT
1200 AM MDT WED MAY 25 2016

NOTE: "FAIR" INDICATES FEW OR NO CLOUDS BELOW 12000 FEET WITH NO
SIGNIFICANT WEATHER AND/OR OBSTRUCTIONS TO VISIBILITY.

MTZ001>007-043-250700-
WEST OF THE DIVIDE

CITY           SKY/WX    TMP DP  RH WIND       PRES   REMARKS
KALISPELL      CLEAR     42  42 100 CALM      29.92S
MISSOULA       CLEAR     43  39  86 SW5       29.96R
BUTTE          CLEAR     38  36  92 S3        29.98R
MULLAN PASS    FOG       39  39 100 NW6       29.98S VSB 1/4
ANACONDA         N/A     41  36  81 W6        29.96S
DEER LODGE       N/A     45  39  81 CALM      29.97R
EUREKA           N/A     46  41  81 CALM      29.91R
HAMILTON         N/A     48  43  81 CALM      29.95S
LIBBY            N/A     48  43  81 S3        29.93R
PLAINS           N/A     45  40  82 CALM      29.96R
$$

MTZ008-052>055-250700-
SOUTHWEST MONTANA

CITY           SKY/WX    TMP DP  RH WIND       PRES   REMARKS
BOZEMAN        MOCLDY    47  41  80 S5        29.94S
DILLON         CLOUDY    45  39  79 CALM      29.95R
ENNIS          CLOUDY    41  39  93 SE8       30.01R
TWIN BRIDGES     N/A     45  36  70 N8        29.93S
$$

MTZ009-010-012-014-046-048-049-054-250700-
EAST SLOPES AND CENTRAL MONTANA

CITY           SKY/WX    TMP DP  RH WIND       PRES   REMARKS
CUT BANK       CLEAR     47  39  74 CALM      29.89R
GREAT FALLS    CLEAR     43  38  82 S10       29.90S
MALMSTROM AFB  CLEAR     42  39  89 S9        29.90S
HELENA         PTCLDY    47  42  83 W7        29.93R
CHOTEAU          N/A     46  41  81 SW3       29.91S
CONRAD           N/A     41  40  96 SW5       29.92F
$$

MTZ011-013-016-021-045-047-050-051-250700-
NORTH CENTRAL MONTANA

CITY           SKY/WX    TMP DP  RH WIND       PRES   REMARKS
HAVRE            N/A    N/A N/A N/A MISG      29.88R
LEWISTOWN      CLOUDY    40  36  86 SE7       29.92S
N BAR RANCH    MOCLDY    37  37 100 NW3       29.94F
CHINOOK          N/A     45  45 100 CALM      29.89R
$$

MTZ017>020-022>027-061-062-250700-
NORTHEAST MONTANA

CITY           SKY/WX    TMP DP  RH WIND       PRES   REMARKS
GLASGOW        PTCLDY    49  42  77 E9        29.89R
JORDAN           N/A     44  41  89 NW6       29.89R
SIDNEY         CLOUDY    55  39  54 N7        29.88R
WOLF POINT     CLOUDY    49  41  74 S3        29.90R
PLENTYWOOD       N/A     52  43  71 N7        29.90R
POPLAR           N/A     52  39  62 NE5       29.90R
SCOBEY           N/A     40  28  62 W1        29.89S
$$

MTZ028>42-056>058-250700-
SOUTHCENTRAL AND SOUTHEAST MONTANA

CITY           SKY/WX    TMP DP  RH WIND       PRES   REMARKS
BAKER          CLOUDY    57  46  66 SE8       29.86R
BILLINGS       CLOUDY    50  44  80 NE6       29.91S
LIVINGSTON     CLOUDY    48  41  76 E9        29.93R
MILES CITY     LGT RAIN  54  48  80 N9        29.87F
EKALAKA          N/A     53  47  80 SW7       29.87R
FORSYTH          N/A     54  52  94 E6        29.88R
$$

REGIONAL REPORTS...DAKOTAS

CITY           SKY/WX    TMP DP  RH WIND       PRES   REMARKS
WILLISTON      MOCLDY    53  38  56 N8        29.88R
MINOT          CLOUDY    61  43  51 N3        29.87S
DICKINSON      LGT RAIN  55  49  80 SE14      29.84R
WATFORD CITY     N/A     50  39  66 N5        29.87F
BISMARCK       CLOUDY    66  50  56 NW6       29.85F
GRAND FORKS    MOCLDY    64  50  60 E9        29.88F
FARGO          PTCLDY    67  46  47 E10       29.86F
BUFFALO SD       N/A     54  45  71 W6        29.82R
RAPID CITY     CLOUDY    53  48  83 SW16      29.92R
$$

REGIONAL REPORTS...WYOMING/IDAHO/WASHINGTON

CITY           SKY/WX    TMP DP  RH WIND       PRES   REMARKS
GILLETTE       CLEAR     46  45  96 CALM      29.86R
SHERIDAN       CLOUDY    50  46  86 NW12      29.90S
BUFFALO WY     CLOUDY    48  44  86 NW6       29.92S
CODY           CLOUDY    48  45  87 CALM      29.92R
YELLOWSTONE LA   N/A     34  32  92 CALM      30.03R
IDAHO FALLS    LGT RAIN  48  43  82 SE21      29.94F
SALMON         CLOUDY    52  37  58 S3        29.93R
BOISE          MOCLDY    60  38  43 W6        29.88R
SPOKANE        MOCLDY    55  46  71 SE6       29.93R
$$

REGIONAL REPORTS...ALBERTA

CITY           SKY/WX    TMP DP  RH WIND       PRES   REMARKS
EDMONTON       PTCLDY    48  41  76 SE7       29.82S
CALGARY        PTCLDY    48  39  71 S6        29.86R
LETHBRIDGE     PTCLDY    45  43  93 S8G24     29.87S
MEDICINE HAT   CLEAR     46  45  93 CALM      29.87S
WATERTON GATE    N/A     50  37  62 SW16G23     N/A
CARDSTON         N/A     45  37  76 S5          N/A
MILK RIVER       N/A     41  39  93 E3          N/A
$$

REGIONAL REPORTS...SASKATCHEWAN

CITY           SKY/WX    TMP DP  RH WIND       PRES   REMARKS
SWIFT CURRENT  PTCLDY    46  46 100 SW6       29.86R FOG
REGINA         CLEAR     45  39  81 SW3       29.88S
SASKATOON      CLEAR     46  46 100 NE15      29.88S
CYPRESS HILLS    N/A     37  36  93 W1          N/A
VAL MARIE        N/A     39  39 100 S1          N/A
ROCKGLEN         N/A     45  43  93 SW5         N/A
$$




USA.gov is the U.S. government's official web portal to all federal, state and local government web resources and services.